Skip Page Navigation
NASA JPL Caltech
NASA Logo - Jet Propulsion Laboratory + View the NASA Portal
+ Center for Near-Earth Object Studies
JPL Home Earth Solar System Stars & Galaxies Technology
JPL Solar System Dynamics
BODIES ORBITS EPHEMERIDES TOOLS PHYSICAL DATA DISCOVERY FAQ SITE MAP
JPL Small-Body Database Browser
Search: [ help ]  
14424 Laval (1991 SR3)
Classification: Main-belt Asteroid          SPK-ID: 2014424
Ephemeris | Orbit Diagram | Orbital Elements | Mission Design | Physical Parameters | Discovery Circumstances ]

[ show orbit diagram ]
Orbital Elements at Epoch 2459200.5 (2020-Dec-17.0) TDB
Reference: JPL 34 (heliocentric ecliptic J2000)
 Element Value Uncertainty (1-sigma)   Units 
e .1265767198076136 1.7193e-08  
a 3.14477623541552 1.3962e-08 au
q 2.746720775007688 5.2238e-08 au
i 21.76097895755915 6.6224e-07 deg
node 19.5622374410006 2.2282e-06 deg
peri 64.3313416052632 1.2648e-05 deg
M 15.15633991644061 1.0372e-05 deg
tp 2459114.741952176924
(2020-Sep-22.24195218)
5.8583e-05 TDB
period 2036.962577146899
5.58
1.3565e-05
3.714e-08
d
yr
n .1767337328819458 1.177e-09 deg/d
Q 3.542831695823352 1.5729e-08 au
  Orbit Determination Parameters
   # obs. used (total)      1943  
   data-arc span      13875 days (37.99 yr)  
   first obs. used      1983-03-11  
   last obs. used      2021-03-06  
   planetary ephem.      DE431  
   SB-pert. ephem.      SB431-N16  
   condition code      0  
   norm. resid. RMS      .40567  
   source      ORB  
   producer      Otto Matic  
   solution date      2021-Mar-17 00:09:28  

Additional Information
 Earth MOID = 1.82948 au 
 Jupiter MOID = 1.94495 au 
 T_jup = 3.087 
[ show covariance matrix ]

Ephemeris | Orbit Diagram | Orbital Elements | Mission Design | Physical Parameters | Discovery Circumstances ]

Physical Parameter Table
Parameter Symbol Value Units Sigma Reference Notes
absolute magnitude H 12.68   n/a E2021B10  
diameter diameter 12.943 km 0.090 urn:nasa:pds:neowise_diameters_albedos::2.0[mainbelt] (http://adsabs.harvard.edu/abs/2011ApJ...741...68M)  
geometric albedo albedo 0.127   0.022 urn:nasa:pds:neowise_diameters_albedos::2.0[mainbelt] (http://adsabs.harvard.edu/abs/2011ApJ...741...68M)  

14424 Laval           Discovered 1991 Sept. 30 by Spacewatch at Kitt Peak.
Located in Quebec City, Université Laval was founded as the Séminaire de Québec in 1663 by Monseigneur François de Laval, the first bishop of New France. Granted a royal charter in 1852, it was the first institution in North America to offer higher education in French.
NOTE: some special characters may not display properly (any characters within {} are an attempt to place the proper accent above a character)
Reference: 20030614/MPCPages.arcLast Updated: 2005-04-26

Alternate Designations
 1991 SR3 = 1983 EK2 
Ephemeris | Orbit Diagram | Orbital Elements | Mission Design | Physical Parameters | Discovery Circumstances ]
ABOUT SSD CREDITS/AWARDS PRIVACY/COPYRIGHT GLOSSARY LINKS
FirstGov 2021-Apr-11 17:09 UT
(server date/time)  
NASA Home Page
Site Manager:   Ryan S. Park
Webmaster  Alan B. Chamberlin